Dades meteomassalio
Diari Summary for Marc 8, 2018 Units:  Metric    English   Both
« Previous Day
Next Day »
Diari Semanal Mensual Anual Personalitzat
  Maxima: Minima: Mijana:
Temperatura: -17.8 °C -16.6 °C -13.3 °C
Rosada: -17.8 °C -17.9 °C -15.9 °C
Humitat: Humidity % 53 % 73 %
Velocitat del vent: 0 km/h 0 km/h 1.9 km/h
Racha vent: 0 km/h - -
Vent:- - South
Pressio: 0 hPa 34212.1 hPa -
Pluja: 0 mm    
Historical Graphs
 
 
Tabular Data for Marc 8, 2018
Time Temperature Dew Point Pressure Wind Wind Speed Wind Gust Humidity Rainfall Rate (Hourly) solar Conditions
-17.8 °C -17.8 °C 0 hPa Calm     Humidity % 0 mm SolarRadiationWatts/m^2 W/m2 Conditions
00:02 -16.2 °C -17.7 °C 34327.3 hPa Calm     83 % 0 mm 0.0 W/m2 CLR
00:07 -16.2 °C -17.7 °C 34313.7 hPa Calm     83 % 0 mm 0.0 W/m2 CLR
00:12 -16.2 °C -17.7 °C 34327.3 hPa Calm     83 % 0 mm 0.0 W/m2 CLR
00:17 -16.2 °C -17.7 °C 34313.7 hPa Calm     83 % 0 mm 0.0 W/m2 CLR
00:23 -16.2 °C -17.7 °C 34313.7 hPa Calm     83 % 0 mm 0.0 W/m2 CLR
00:28 -16.2 °C -17.7 °C 34313.7 hPa Calm     83 % 0 mm 0.0 W/m2 CLR
00:33 -16.2 °C -17.6 °C 34313.7 hPa Calm     84 % 0 mm 0.0 W/m2 CLR
00:38 -16.2 °C -17.6 °C 34303.6 hPa Calm     84 % 0 mm 0.0 W/m2 CLR
00:43 -16.2 °C -17.6 °C 34303.6 hPa Calm     84 % 0 mm 0.0 W/m2 CLR
00:48 -16.6 °C -17.9 °C 34303.6 hPa Calm     84 % 0 mm 0.0 W/m2 CLR
00:53 -16.6 °C -17.9 °C 34303.6 hPa Calm     84 % 0 mm 0.0 W/m2 CLR
00:58 -16.6 °C -17.8 °C 34303.6 hPa Calm     85 % 0 mm 0.0 W/m2 CLR
01:03 -16.6 °C -17.8 °C 34293.4 hPa Calm     85 % 0 mm 0.0 W/m2 CLR
01:08 -16.6 °C -17.8 °C 34293.4 hPa Calm     85 % 0 mm 0.0 W/m2 CLR
01:13 -16.6 °C -17.8 °C 34293.4 hPa Calm     85 % 0 mm 0.0 W/m2 CLR
01:18 -16.6 °C -17.7 °C 34293.4 hPa Calm     86 % 0 mm 0.0 W/m2 CLR
01:23 -16.6 °C -17.7 °C 34293.4 hPa Calm     86 % 0 mm 0.0 W/m2 CLR
01:28 -16.2 °C -17.4 °C 34293.4 hPa Calm     86 % 0 mm 0.0 W/m2 CLR
01:33 -16.2 °C -17.5 °C 34279.9 hPa Calm     85 % 0 mm 0.0 W/m2 CLR
01:38 -16.2 °C -17.5 °C 34279.9 hPa Calm     85 % 0 mm 0.0 W/m2 CLR
01:43 -16.2 °C -17.5 °C 34279.9 hPa Calm     85 % 0 mm 0.0 W/m2 CLR
01:48 -16.2 °C -17.5 °C 34279.9 hPa Calm     85 % 0 mm 0.0 W/m2 CLR
01:53 -16.2 °C -17.5 °C 34279.9 hPa Calm     85 % 0 mm 0.0 W/m2 CLR
01:58 -16.2 °C -17.5 °C 34279.9 hPa Calm     85 % 0 mm 0.0 W/m2 CLR
02:03 -16.2 °C -17.5 °C 34269.7 hPa Calm     85 % 0 mm 0.0 W/m2 CLR
02:08 -16.2 °C -17.5 °C 34279.9 hPa Calm     85 % 0 mm 0.0 W/m2 CLR
02:13 -16.2 °C -17.4 °C 34279.9 hPa Calm     86 % 0 mm 0.0 W/m2 CLR
02:18 -16.2 °C -17.4 °C 34269.7 hPa Calm     86 % 0 mm 0.0 W/m2 CLR
02:23 -16.2 °C -17.4 °C 34269.7 hPa Calm     86 % 0 mm 0.0 W/m2 CLR
02:28 -15.9 °C -17.1 °C 34269.7 hPa Calm     86 % 0 mm 0.0 W/m2 CLR
02:33 -15.9 °C -17.2 °C 34269.7 hPa Calm     85 % 0 mm 0.0 W/m2 CLR
02:38 -15.9 °C -17.2 °C 34256.2 hPa Calm     85 % 0 mm 0.0 W/m2 CLR
02:43 -15.9 °C -17.2 °C 34256.2 hPa Calm     85 % 0 mm 0.0 W/m2 CLR
02:48 -15.9 °C -17.2 °C 34256.2 hPa Calm     85 % 0 mm 0.0 W/m2 CLR
02:53 -15.9 °C -17.2 °C 34256.2 hPa Calm     85 % 0 mm 0.0 W/m2 CLR
02:58 -15.9 °C -17.2 °C 34246 hPa Calm     85 % 0 mm 0.0 W/m2 CLR
03:03 -15.9 °C -17.2 °C 34246 hPa Calm     85 % 0 mm 0.0 W/m2 CLR
03:09 -15.9 °C -17.2 °C 34246 hPa Calm     85 % 0 mm 0.0 W/m2 CLR
03:14 -15.9 °C -17.2 °C 34246 hPa Calm     85 % 0 mm 0.0 W/m2 CLR
03:19 -15.9 °C -17.2 °C 34235.8 hPa Calm     85 % 0 mm 0.0 W/m2 CLR
03:24 -15.9 °C -17.2 °C 34235.8 hPa Calm     85 % 0 mm 0.0 W/m2 CLR
03:29 -15.9 °C -17.1 °C 34235.8 hPa Calm     86 % 0 mm 0.0 W/m2 CLR
03:34 -15.9 °C -17.1 °C 34235.8 hPa Calm     86 % 0 mm 0.0 W/m2 CLR
03:39 -15.9 °C -17.1 °C 34235.8 hPa Calm     86 % 0 mm 0.0 W/m2 CLR
03:44 -15.9 °C -17.1 °C 34222.3 hPa Calm     86 % 0 mm 0.0 W/m2 CLR
03:49 -15.9 °C -17.1 °C 34222.3 hPa Calm     86 % 0 mm 0.0 W/m2 CLR
03:54 -15.9 °C -17.1 °C 34222.3 hPa Calm     86 % 0 mm 0.0 W/m2 CLR
03:59 -15.9 °C -17.1 °C 34222.3 hPa Calm     86 % 0 mm 0.0 W/m2 CLR
04:04 -15.9 °C -17.1 °C 34222.3 hPa Calm     86 % 0 mm 0.0 W/m2 CLR
04:09 -15.9 °C -17.1 °C 34222.3 hPa Calm     86 % 0 mm 0.0 W/m2 CLR
04:14 -15.9 °C -17 °C 34222.3 hPa Calm     87 % 0 mm 0.0 W/m2 CLR
04:19 -15.9 °C -17 °C 34222.3 hPa Calm     87 % 0 mm 0.0 W/m2 CLR
04:24 -15.9 °C -17 °C 34222.3 hPa Calm     87 % 0 mm 0.0 W/m2 CLR
04:29 -15.9 °C -17 °C 34222.3 hPa Calm     87 % 0 mm 0.0 W/m2 CLR
04:34 -15.9 °C -17.1 °C 34222.3 hPa Calm     86 % 0 mm 0.0 W/m2 CLR
04:39 -15.9 °C -17.1 °C 34222.3 hPa Calm     86 % 0 mm 0.0 W/m2 CLR
04:44 -15.6 °C -16.8 °C 34222.3 hPa Calm     86 % 0 mm 0.0 W/m2 CLR
04:49 -15.6 °C -16.8 °C 34222.3 hPa Calm     86 % 0 mm 0.0 W/m2 CLR
04:54 -15.6 °C -16.8 °C 34222.3 hPa Calm     86 % 0 mm 0.0 W/m2 CLR
04:59 -15.6 °C -16.7 °C 34222.3 hPa Calm     87 % 0 mm 0.0 W/m2 CLR
05:04 -15.6 °C -16.7 °C 34222.3 hPa Calm     87 % 0 mm 0.0 W/m2 CLR
05:09 -15.6 °C -16.8 °C 34212.1 hPa Calm     86 % 0 mm 0.0 W/m2 CLR
05:14 -15.6 °C -16.8 °C 34222.3 hPa Calm     86 % 0 mm 0.0 W/m2 CLR
05:19 -15.6 °C -16.8 °C 34222.3 hPa Calm     86 % 0 mm 0.0 W/m2 CLR
05:24 -15.6 °C -16.8 °C 34222.3 hPa Calm     86 % 0 mm 0.0 W/m2 CLR
05:25 -15.6 °C -16.8 °C 34222.3 hPa Calm     86 % 0 mm 0.0 W/m2 CLR
05:30 -15.6 °C -16.8 °C 34222.3 hPa Calm     86 % 0 mm 0.0 W/m2 CLR
05:35 -15.6 °C -16.8 °C 34222.3 hPa Calm     86 % 0 mm 0.0 W/m2 CLR
05:40 -15.6 °C -16.8 °C 34222.3 hPa Calm     86 % 0 mm 0.0 W/m2 CLR
05:45 -15.6 °C -16.8 °C 34222.3 hPa Calm     86 % 0 mm 0.0 W/m2 CLR
05:50 -15.6 °C -16.8 °C 34222.3 hPa Calm     86 % 0 mm 0.0 W/m2 CLR
05:55 -15.6 °C -16.8 °C 34222.3 hPa Calm     86 % 0 mm 0.0 W/m2 CLR
06:00 -15.6 °C -16.8 °C 34222.3 hPa Calm     86 % 0 mm 0.0 W/m2 CLR
06:05 -15.6 °C -16.8 °C 34222.3 hPa Calm     86 % 0 mm 0.0 W/m2 CLR
06:10 -15.6 °C -16.8 °C 34222.3 hPa Calm     86 % 0 mm 0.0 W/m2 CLR
06:15 -15.6 °C -16.8 °C 34222.3 hPa Calm     86 % 0 mm 0.0 W/m2 CLR
06:20 -15.6 °C -16.8 °C 34235.8 hPa Calm     86 % 0 mm 0.0 W/m2 CLR
06:25 -15.6 °C -16.8 °C 34235.8 hPa Calm     86 % 0 mm 0.0 W/m2 CLR
06:30 -15.3 °C -16.5 °C 34235.8 hPa Calm     86 % 0 mm 0.0 W/m2 CLR
06:35 -15.3 °C -16.5 °C 34235.8 hPa Calm     86 % 0 mm 0.0 W/m2 CLR
06:40 -15.3 °C -16.5 °C 34235.8 hPa Calm     86 % 0 mm 0.0 W/m2 CLR
06:45 -15.3 °C -16.5 °C 34235.8 hPa Calm     86 % 0 mm 0.0 W/m2 CLR
06:50 -15.3 °C -16.5 °C 34235.8 hPa Calm     86 % 0 mm 0.0 W/m2 CLR
06:55 -15.3 °C -16.5 °C 34235.8 hPa Calm     86 % 0 mm 0.0 W/m2 CLR
07:00 -15.3 °C -16.5 °C 34246 hPa Calm     86 % 0 mm 0.0 W/m2 CLR
07:05 -15.3 °C -16.5 °C 34246 hPa Calm     86 % 0 mm 0.0 W/m2 CLR
07:10 -15.3 °C -16.5 °C 34246 hPa Calm     86 % 0 mm 0.0 W/m2 CLR
07:15 -15.3 °C -16.5 °C 34246 hPa Calm     86 % 0 mm 0.0 W/m2 OVC
07:20 -15.3 °C -16.5 °C 34256.2 hPa Calm     86 % 0 mm 0.0 W/m2 OVC
07:25 -15.3 °C -16.5 °C 34256.2 hPa Calm     86 % 0 mm 0.0 W/m2 OVC
07:30 -15.3 °C -16.5 °C 34256.2 hPa Calm     86 % 0 mm 9.0 W/m2 BKN
07:35 -15.3 °C -16.5 °C 34269.7 hPa Calm     86 % 0 mm 30.0 W/m2 BKN
07:40 -15.3 °C -16.5 °C 34269.7 hPa Calm     86 % 0 mm 28.0 W/m2 BKN
07:45 -15 °C -16.2 °C 34269.7 hPa Calm     86 % 0 mm 23.0 W/m2 BKN
07:50 -15 °C -16.3 °C 34269.7 hPa Calm     85 % 0 mm 25.0 W/m2 BKN
07:55 -15 °C -16.4 °C 34269.7 hPa Calm     84 % 0 mm 42.0 W/m2 BKN
08:00 -15 °C -16.4 °C 34279.9 hPa Calm     84 % 0 mm 44.0 W/m2 BKN
08:05 -14.7 °C -16.2 °C 34279.9 hPa Calm     83 % 0 mm 35.0 W/m2 BKN
08:10 -14.7 °C -16.2 °C 34279.9 hPa Calm     83 % 0 mm 47.0 W/m2 BKN
08:15 -14.7 °C -16.3 °C 34269.7 hPa Calm     82 % 0 mm 74.0 W/m2 FEW
08:20 -14.7 °C -16.4 °C 34279.9 hPa Calm     80 % 0 mm 81.0 W/m2 FEW
08:25 -14.4 °C -16.3 °C 34279.9 hPa Calm     79 % 0 mm 95.0 W/m2 FEW
08:30 -14.4 °C -16.3 °C 34269.7 hPa Calm     79 % 0 mm 120.0 W/m2 CLR
08:35 -14.4 °C -16.3 °C 34279.9 hPa Calm     78 % 0 mm 167.0 W/m2 CLR
08:40 -14.1 °C -16.2 °C 34279.9 hPa Calm     77 % 0 mm 137.0 W/m2 CLR
08:45 -13.8 °C -15.9 °C 34279.9 hPa Calm     77 % 0 mm 107.0 W/m2 CLR
08:50 -13.8 °C -16.1 °C 34279.9 hPa Calm     75 % 0 mm 100.0 W/m2 CLR
08:55 -13.4 °C -15.9 °C 34279.9 hPa Calm     74 % 0 mm 98.0 W/m2 CLR
09:00 -13.4 °C -16 °C 34279.9 hPa Calm     73 % 0 mm 137.0 W/m2 CLR
09:05 -13.4 °C -16.2 °C 34279.9 hPa Calm     71 % 0 mm 146.0 W/m2 CLR
09:10 -13.2 °C -15.9 °C 34279.9 hPa Calm     71 % 0 mm 172.0 W/m2 CLR
09:15 -13.2 °C -15.8 °C 34279.9 hPa Calm     72 % 0 mm 144.0 W/m2 CLR
09:20 -12.8 °C -15.6 °C 34279.9 hPa Calm     71 % 0 mm 137.0 W/m2 CLR
09:25 -12.8 °C -15.7 °C 34293.4 hPa Calm     70 % 0 mm 176.0 W/m2 CLR
09:30 -12.8 °C -15.7 °C 34293.4 hPa Calm     70 % 0 mm 163.0 W/m2 CLR
09:35 -12.8 °C -15.7 °C 34293.4 hPa Calm     70 % 0 mm 135.0 W/m2 CLR
09:40 -12.8 °C -15.8 °C 34293.4 hPa Calm     69 % 0 mm 121.0 W/m2 CLR
09:45 -12.8 °C -15.9 °C 34293.4 hPa Calm     68 % 0 mm 114.0 W/m2 CLR
09:50 -12.6 °C -15.7 °C 34293.4 hPa Calm     68 % 0 mm 130.0 W/m2 CLR
09:55 -12.6 °C -15.8 °C 34293.4 hPa Calm     67 % 0 mm 111.0 W/m2 CLR
10:00 -12.6 °C -15.8 °C 34293.4 hPa Calm     67 % 0 mm 120.0 W/m2 CLR
10:05 -12.6 °C -15.7 °C 34293.4 hPa Calm     68 % 0 mm 125.0 W/m2 CLR
10:10 -12.6 °C -15.9 °C 34293.4 hPa Calm     66 % 0 mm 151.0 W/m2 CLR
10:15 -12.2 °C -15.4 °C 34303.6 hPa Calm     67 % 0 mm 148.0 W/m2 CLR
10:20 -12.2 °C -15.4 °C 34293.4 hPa Calm     67 % 0 mm 144.0 W/m2 CLR
10:26 -12.2 °C -15.6 °C 34293.4 hPa Calm     66 % 0 mm 144.0 W/m2 CLR
10:31 -11.9 °C -15.3 °C 34293.4 hPa Calm     66 % 0 mm 132.0 W/m2 CLR
10:36 -12.2 °C -15.7 °C 34293.4 hPa Calm     65 % 0 mm 169.0 W/m2 CLR
10:41 -12.2 °C -15.7 °C 34293.4 hPa Calm     65 % 0 mm 160.0 W/m2 CLR
10:46 -12.2 °C -15.7 °C 34303.6 hPa Calm     65 % 0 mm 179.0 W/m2 CLR
10:51 -11.9 °C -15.6 °C 34293.4 hPa Calm     64 % 0 mm 185.0 W/m2 CLR
10:56 -11.9 °C -15.6 °C 34293.4 hPa Calm     64 % 0 mm 185.0 W/m2 CLR
11:01 -11.9 °C -15.4 °C 34303.6 hPa Calm     65 % 0 mm 193.0 W/m2 CLR
11:06 -11.9 °C -15.4 °C 34303.6 hPa Calm     65 % 0 mm 251.0 W/m2 CLR
11:11 -11.9 °C -15.4 °C 34303.6 hPa Calm     65 % 0 mm 334.0 W/m2 CLR
11:16 -11.6 °C -15.1 °C 34303.6 hPa Calm     65 % 0 mm 329.0 W/m2 CLR
11:21 -11.6 °C -15.4 °C 34303.6 hPa Calm     63 % 0 mm 330.0 W/m2 CLR
11:26 -11.6 °C -15.2 °C 34293.4 hPa Calm     64 % 0 mm 329.0 W/m2 CLR
11:31 -11.6 °C -15.4 °C 34293.4 hPa Calm     63 % 0 mm 320.0 W/m2 CLR
11:36 -11.6 °C -15.4 °C 34293.4 hPa Calm     63 % 0 mm 357.0 W/m2 CLR
11:41 -11.6 °C -15.6 °C 34293.4 hPa Calm     61 % 0 mm 306.0 W/m2 CLR
11:46 -11.3 °C -15.3 °C 34293.4 hPa Calm     61 % 0 mm 315.0 W/m2 CLR
11:51 -11.3 °C -15.3 °C 34293.4 hPa Calm     61 % 0 mm 369.0 W/m2 CLR
11:56 -11.3 °C -15.2 °C 34293.4 hPa Calm     62 % 0 mm 396.0 W/m2 CLR
12:01 -11.3 °C -15.2 °C 34293.4 hPa Calm     62 % 0 mm 369.0 W/m2 CLR
12:06 -11 °C -14.7 °C 34293.4 hPa Calm     64 % 0 mm 390.0 W/m2 CLR
12:11 -11.3 °C -15.2 °C 34293.4 hPa Calm     62 % 0 mm 371.0 W/m2 CLR
12:16 -11.3 °C -15.3 °C 34293.4 hPa NNW 3.1 km/h 3.1 km/h 61 % 0 mm 295.0 W/m2 CLR
12:21 -11.3 °C -15.3 °C 34293.4 hPa Calm     61 % 0 mm 369.0 W/m2 CLR
12:26 -11 °C -14.9 °C 34293.4 hPa Calm     62 % 0 mm 322.0 W/m2 CLR
12:31 -11 °C -15.2 °C 34293.4 hPa Calm     60 % 0 mm 425.0 W/m2 CLR
12:36 -10.7 °C -14.8 °C 34293.4 hPa Calm     61 % 0 mm 520.0 W/m2 CLR
12:41 -10.7 °C -14.6 °C 34293.4 hPa Calm     62 % 0 mm 478.0 W/m2 CLR
12:46 -10.4 °C -14.6 °C 34293.4 hPa Calm     60 % 0 mm 473.0 W/m2 CLR
12:51 -10.4 °C -14.6 °C 34293.4 hPa Calm     60 % 0 mm 504.0 W/m2 CLR
12:56 -10.4 °C -14.5 °C 34293.4 hPa Calm     61 % 0 mm 439.0 W/m2 CLR
13:01 -10.4 °C -14.7 °C 34293.4 hPa Calm     59 % 0 mm 485.0 W/m2 CLR
13:06 -10.4 °C -14.6 °C 34293.4 hPa Calm     60 % 0 mm 455.0 W/m2 CLR
13:11 -10.4 °C -14.7 °C 34279.9 hPa Calm     59 % 0 mm 717.0 W/m2 CLR
13:16 -10.4 °C -14.6 °C 34279.9 hPa Calm     60 % 0 mm 793.0 W/m2 CLR
13:21 -10.1 °C -14.4 °C 34279.9 hPa Calm     59 % 0 mm 814.0 W/m2 CLR
13:26 -10.1 °C -14.3 °C 34269.7 hPa Calm     60 % 0 mm 828.0 W/m2 CLR
13:31 -10.1 °C -14.7 °C 34269.7 hPa North 18.2 km/h 18.2 km/h 57 % 0 mm 489.0 W/m2 CLR
13:36 -10.1 °C -14.6 °C 34269.7 hPa NNE 3.1 km/h 3.1 km/h 58 % 0 mm 306.0 W/m2 CLR
13:41 -10.4 °C -15 °C 34269.7 hPa Calm     57 % 0 mm 339.0 W/m2 CLR
13:46 -10.4 °C -14.9 °C 34269.7 hPa Calm     58 % 0 mm 399.0 W/m2 CLR
13:51 -10.4 °C -14.7 °C 34269.7 hPa Calm     59 % 0 mm 512.0 W/m2 CLR
13:56 -10.1 °C -14.7 °C 34269.7 hPa Calm     57 % 0 mm 564.0 W/m2 CLR
14:01 -10.1 °C -14.4 °C 34269.7 hPa Calm     59 % 0 mm 988.0 W/m2 CLR
14:06 -9.8 °C -14.3 °C 34269.7 hPa NNW 2.6 km/h 2.6 km/h 58 % 0 mm 529.0 W/m2 CLR
14:11 -9.8 °C -14.6 °C 34269.7 hPa NNW 6 km/h 6 km/h 56 % 0 mm 418.0 W/m2 CLR
14:16 -9.8 °C -14.4 °C 34256.2 hPa Calm     57 % 0 mm 584.0 W/m2 CLR
14:21 -9.8 °C -14.2 °C 34256.2 hPa North 23.8 km/h 23.8 km/h 59 % 0 mm 1007.0 W/m2 CLR
14:26 -9.4 °C -14.3 °C 34269.7 hPa Calm     56 % 0 mm 369.0 W/m2 CLR
14:31 -9.4 °C -14.3 °C 34256.2 hPa Calm     56 % 0 mm 348.0 W/m2 CLR
14:36 -9.8 °C -14.2 °C 34256.2 hPa NNW 17.9 km/h 17.9 km/h 59 % 0 mm 949.0 W/m2 CLR
14:41 -9.4 °C -14.6 °C 34256.2 hPa Calm     54 % 0 mm 954.0 W/m2 CLR
14:46 -9.1 °C -14.1 °C 34256.2 hPa North 28.5 km/h 28.5 km/h 55 % 0 mm 411.0 W/m2 CLR
14:51 -9.1 °C -14.1 °C 34256.2 hPa NNW 23.8 km/h 23.8 km/h 55 % 0 mm 272.0 W/m2 CLR
14:56 -9.4 °C -14.3 °C 34256.2 hPa NW 20.9 km/h 20.9 km/h 56 % 0 mm 248.0 W/m2 CLR
15:01 -9.8 °C -14.4 °C 34256.2 hPa NNE 20.9 km/h 20.9 km/h 57 % 0 mm 279.0 W/m2 CLR
15:06 -9.8 °C -14.6 °C 34269.7 hPa Calm     56 % 0 mm 257.0 W/m2 CLR
15:11 -9.8 °C -14.3 °C 34256.2 hPa North 9 km/h   58 % 0 mm 290.0 W/m2 CLR
15:16 -9.8 °C -14.3 °C 34256.2 hPa NNW 23.8 km/h 23.8 km/h 58 % 0 mm 348.0 W/m2 CLR
15:21 -9.8 °C -14.4 °C 34256.2 hPa NE 26.9 km/h 26.9 km/h 57 % 0 mm 329.0 W/m2 CLR
15:26 -9.8 °C -14.6 °C 34256.2 hPa NNE 26.9 km/h 26.9 km/h 56 % 0 mm 316.0 W/m2 CLR
15:31 -9.8 °C -14.3 °C 34256.2 hPa NE 28.5 km/h 28.5 km/h 58 % 0 mm 329.0 W/m2 CLR
15:36 -9.8 °C -14.4 °C 34256.2 hPa NE 29.8 km/h 29.8 km/h 57 % 0 mm 336.0 W/m2 CLR
15:41 -9.8 °C -14.6 °C 34256.2 hPa NE 26.9 km/h 26.9 km/h 56 % 0 mm 285.0 W/m2 CLR
15:46 -9.8 °C -14.3 °C 34256.2 hPa North 20.8 km/h 20.8 km/h 58 % 0 mm 315.0 W/m2 CLR
15:51 -9.8 °C -14.3 °C 34256.2 hPa Calm     58 % 0 mm 392.0 W/m2 CLR
15:56 -9.8 °C -14.4 °C 34256.2 hPa NNE 23.8 km/h 23.8 km/h 57 % 0 mm 731.0 W/m2 CLR
16:01 -9.1 °C -13.8 °C 34256.2 hPa North 29.8 km/h 29.8 km/h 57 % 0 mm 146.0 W/m2 CLR
16:06 -9.1 °C -13.8 °C 34256.2 hPa Calm     57 % 0 mm 179.0 W/m2 CLR
16:11 -9.4 °C -14.1 °C 34269.7 hPa Calm   0.8 km/h 57 % 0 mm 123.0 W/m2 CLR
16:16 -9.8 °C -14.4 °C 34269.7 hPa NNE 23.8 km/h 23.8 km/h 57 % 0 mm 471.0 W/m2 CLR
16:21 -9.8 °C -14.4 °C 34269.7 hPa NE 23.8 km/h 23.8 km/h 57 % 0 mm 492.0 W/m2 CLR
16:27 -9.4 °C -14.1 °C 34256.2 hPa NNW 26.9 km/h 26.9 km/h 57 % 0 mm 439.0 W/m2 CLR
16:32 -9.4 °C -14.4 °C 34269.7 hPa North 17.9 km/h 17.9 km/h 55 % 0 mm 448.0 W/m2 CLR
16:37 -9.1 °C -14 °C 34269.7 hPa Calm     56 % 0 mm 441.0 W/m2 CLR
16:42 -9.1 °C -14.1 °C 34269.7 hPa Calm     55 % 0 mm 408.0 W/m2 CLR
16:47 -9.1 °C -14.1 °C 34269.7 hPa Calm     55 % 0 mm 360.0 W/m2 CLR
16:52 -9.4 °C -14.7 °C 34256.2 hPa Calm     53 % 0 mm 343.0 W/m2 CLR
16:57 -9.4 °C -14.7 °C 34256.2 hPa NNW 23.8 km/h 23.8 km/h 53 % 0 mm 330.0 W/m2 CLR
17:02 -9.4 °C -14.6 °C 34256.2 hPa Calm     54 % 0 mm 318.0 W/m2 CLR
17:07 -9.1 °C -14.3 °C 34256.2 hPa NNW 23.8 km/h 23.8 km/h 54 % 0 mm 297.0 W/m2 CLR
17:12 -9.4 °C -14.6 °C 34256.2 hPa Calm     54 % 0 mm 278.0 W/m2 CLR
17:17 -9.4 °C -14.6 °C 34269.7 hPa Calm     54 % 0 mm 265.0 W/m2 CLR
17:18 -9.4 °C -14.3 °C 34269.7 hPa Calm     56 % 0 mm 265.0 W/m2 CLR
17:23 -9.4 °C -14.4 °C 34269.7 hPa Calm     55 % 0 mm 243.0 W/m2 CLR
17:28 -9.8 °C -14.7 °C 34269.7 hPa NNE 3.1 km/h 3.1 km/h 55 % 0 mm 218.0 W/m2 CLR
17:33 -9.8 °C -14.9 °C 34269.7 hPa Calm     54 % 0 mm 207.0 W/m2 CLR
17:38 -9.8 °C -14.6 °C 34269.7 hPa Calm     56 % 0 mm 190.0 W/m2 CLR
17:43 -9.8 °C -14.6 °C 34269.7 hPa NNW 3.1 km/h   56 % 0 mm 169.0 W/m2 CLR
17:48 -9.8 °C -14.9 °C 34269.7 hPa Calm     54 % 0 mm 149.0 W/m2 CLR
17:53 -9.8 °C -14.6 °C 34256.2 hPa Calm     56 % 0 mm 134.0 W/m2 CLR
17:58 -9.8 °C -14.7 °C 34269.7 hPa North 6 km/h 6 km/h 55 % 0 mm 116.0 W/m2 CLR
18:03 -10.1 °C -15 °C 34269.7 hPa Calm     55 % 0 mm 104.0 W/m2 CLR
18:08 -10.1 °C -15 °C 34269.7 hPa Calm     55 % 0 mm 76.0 W/m2 FEW
18:13 -10.1 °C -14.9 °C 34269.7 hPa Calm     56 % 0 mm 60.0 W/m2 SCT
18:18 -10.1 °C -14.9 °C 34269.7 hPa Calm     56 % 0 mm 51.0 W/m2 SCT
18:23 -10.4 °C -15 °C 34269.7 hPa Calm     57 % 0 mm 39.0 W/m2 BKN
18:28 -10.4 °C -15 °C 34279.9 hPa Calm     57 % 0 mm 28.0 W/m2 BKN
18:33 -10.4 °C -15 °C 34279.9 hPa Calm     57 % 0 mm 18.0 W/m2 BKN
18:38 -10.7 °C -15.2 °C 34279.9 hPa Calm     58 % 0 mm 12.0 W/m2 BKN
18:43 -11 °C -15.3 °C 34279.9 hPa Calm     59 % 0 mm 9.0 W/m2 BKN
18:48 -11.3 °C -15.4 °C 34293.4 hPa Calm     60 % 0 mm 7.0 W/m2 BKN
18:53 -11.6 °C -15.6 °C 34293.4 hPa Calm     61 % 0 mm 5.0 W/m2 OVC
18:58 -11.6 °C -15.5 °C 34293.4 hPa Calm     62 % 0 mm 0.0 W/m2 OVC
19:03 -11.9 °C -15.7 °C 34293.4 hPa Calm     63 % 0 mm 0.0 W/m2 CLR
19:08 -12.2 °C -15.8 °C 34293.4 hPa Calm     64 % 0 mm 0.0 W/m2 CLR
19:13 -12.6 °C -16.2 °C 34293.4 hPa Calm     64 % 0 mm 0.0 W/m2 CLR
19:18 -12.6 °C -16 °C 34293.4 hPa Calm     65 % 0 mm 0.0 W/m2 CLR
19:23 -12.8 °C -16.3 °C 34293.4 hPa Calm     65 % 0 mm 0.0 W/m2 CLR
19:28 -12.8 °C -16.2 °C 34303.6 hPa Calm     66 % 0 mm 0.0 W/m2 CLR
19:33 -12.8 °C -16.2 °C 34303.6 hPa Calm     66 % 0 mm 0.0 W/m2 CLR
19:38 -13.2 °C -16.2 °C 34303.6 hPa Calm     68 % 0 mm 0.0 W/m2 CLR
19:43 -12.8 °C -15.9 °C 34303.6 hPa Calm     68 % 0 mm 0.0 W/m2 CLR
19:48 -12.8 °C -15.7 °C 34313.7 hPa Calm     70 % 0 mm 0.0 W/m2 CLR
19:53 -13.2 °C -15.9 °C 34313.7 hPa Calm     71 % 0 mm 0.0 W/m2 CLR
19:58 -13.2 °C -15.8 °C 34313.7 hPa Calm     72 % 0 mm 0.0 W/m2 CLR
20:03 -13.2 °C -15.7 °C 34313.7 hPa Calm     73 % 0 mm 0.0 W/m2 CLR
20:08 -13.2 °C -15.6 °C 34327.3 hPa Calm     74 % 0 mm 0.0 W/m2 CLR
20:13 -13.2 °C -15.4 °C 34327.3 hPa Calm     75 % 0 mm 0.0 W/m2 CLR
20:18 -13.4 °C -15.7 °C 34327.3 hPa Calm     76 % 0 mm 0.0 W/m2 CLR
20:23 -13.4 °C -15.6 °C 34327.3 hPa Calm     77 % 0 mm 0.0 W/m2 CLR
20:28 -13.8 °C -15.7 °C 34327.3 hPa Calm     78 % 0 mm 0.0 W/m2 CLR
20:33 -13.8 °C -15.7 °C 34327.3 hPa Calm     79 % 0 mm 0.0 W/m2 CLR
20:38 -13.8 °C -15.7 °C 34337.4 hPa Calm     79 % 0 mm 0.0 W/m2 CLR
20:43 -14.1 °C -15.9 °C 34337.4 hPa Calm     79 % 0 mm 0.0 W/m2 CLR
20:48 -14.1 °C -15.9 °C 34337.4 hPa Calm     80 % 0 mm 0.0 W/m2 CLR
20:54 -14.1 °C -15.8 °C 34337.4 hPa Calm     81 % 0 mm 0.0 W/m2 CLR
20:59 -14.1 °C -15.8 °C 34337.4 hPa Calm     81 % 0 mm 0.0 W/m2 CLR
21:04 -14.4 °C -15.9 °C 34337.4 hPa Calm     82 % 0 mm 0.0 W/m2 CLR
21:09 -14.4 °C -15.9 °C 34337.4 hPa Calm     82 % 0 mm 0.0 W/m2 CLR
21:13 -14.4 °C -15.9 °C 34337.4 hPa Calm     83 % 0 mm 0.0 W/m2 CLR
21:19 -14.7 °C -16.2 °C 34337.4 hPa Calm     83 % 0 mm 0.0 W/m2 CLR
21:24 -14.7 °C -16.2 °C 34337.4 hPa Calm     83 % 0 mm 0.0 W/m2 CLR
21:29 -14.7 °C -16.2 °C 34347.6 hPa Calm     83 % 0 mm 0.0 W/m2 CLR
21:34 -14.7 °C -16.1 °C 34347.6 hPa Calm     84 % 0 mm 0.0 W/m2 CLR
21:39 -14.7 °C -16.1 °C 34347.6 hPa Calm     84 % 0 mm 0.0 W/m2 CLR
21:44 -14.7 °C -16.1 °C 34347.6 hPa Calm     84 % 0 mm 0.0 W/m2 CLR
21:49 -14.7 °C -16 °C 34347.6 hPa Calm     85 % 0 mm 0.0 W/m2 CLR
21:54 -14.7 °C -16 °C 34347.6 hPa Calm     85 % 0 mm 0.0 W/m2 CLR
21:59 -15 °C -16.3 °C 34347.6 hPa Calm     85 % 0 mm 0.0 W/m2 CLR
22:04 -15 °C -16.3 °C 34347.6 hPa Calm     85 % 0 mm 0.0 W/m2 CLR
22:09 -15 °C -16.3 °C 34347.6 hPa Calm     85 % 0 mm 0.0 W/m2 CLR
22:14 -15 °C -16.3 °C 34347.6 hPa Calm     85 % 0 mm 0.0 W/m2 CLR
22:19 -15 °C -16.3 °C 34347.6 hPa Calm     85 % 0 mm 0.0 W/m2 CLR
22:24 -15 °C -16.3 °C 34347.6 hPa Calm     85 % 0 mm 0.0 W/m2 CLR
22:29 -15 °C -16.3 °C 34361.1 hPa Calm     85 % 0 mm 0.0 W/m2 CLR
22:34 -15 °C -16.3 °C 34361.1 hPa Calm     85 % 0 mm 0.0 W/m2 CLR
22:39 -15 °C -16.2 °C 34361.1 hPa Calm     86 % 0 mm 0.0 W/m2 CLR
22:44 -15 °C -16.2 °C 34361.1 hPa Calm     86 % 0 mm 0.0 W/m2 CLR
22:49 -15.3 °C -16.6 °C 34361.1 hPa Calm     85 % 0 mm 0.0 W/m2 CLR
22:54 -15.3 °C -16.5 °C 34361.1 hPa Calm     86 % 0 mm 0.0 W/m2 CLR
22:59 -15.3 °C -16.4 °C 34361.1 hPa Calm     87 % 0 mm 0.0 W/m2 CLR
23:04 -15.3 °C -16.4 °C 34361.1 hPa Calm     87 % 0 mm 0.0 W/m2 CLR
23:09 -15.3 °C -16.4 °C 34371.3 hPa Calm     87 % 0 mm 0.0 W/m2 CLR
23:14 -15.3 °C -16.4 °C 34361.1 hPa Calm     87 % 0 mm 0.0 W/m2 CLR
23:19 -15.3 °C -16.4 °C 34361.1 hPa Calm     87 % 0 mm 0.0 W/m2 CLR
23:24 -15.3 °C -16.4 °C 34361.1 hPa Calm     87 % 0 mm 0.0 W/m2 CLR
23:29 -15.3 °C -16.3 °C 34361.1 hPa Calm     88 % 0 mm 0.0 W/m2 CLR
23:34 -15.3 °C -16.3 °C 34371.3 hPa Calm     88 % 0 mm 0.0 W/m2 CLR
23:39 -15.3 °C -16.3 °C 34361.1 hPa Calm     88 % 0 mm 0.0 W/m2 CLR
23:44 -15.3 °C -16.3 °C 34361.1 hPa Calm     88 % 0 mm 0.0 W/m2 CLR
23:49 -15.3 °C -16.3 °C 34361.1 hPa Calm     88 % 0 mm 0.0 W/m2 CLR
23:54 -15.3 °C -16.3 °C 34371.3 hPa Calm     88 % 0 mm 0.0 W/m2 CLR
23:59 -15.3 °C -16.2 °C 34371.3 hPa Calm     89 % 0 mm 0.0 W/m2 CLR
Lo Temps de Massalio
Compliments of Weather Underground - 1.25 mb